STARLINK-34371

Last updated on Sat Jul 19 2025 00:02:08 GMT+0000 (Coordinated Universal Time)

1 64756U 25147B 25199.58335648 -.01436339 00000+0 -96288-2 0 9990 2 64756 53.1570 256.8916 0000894 80.9904 316.0183 15.77373407 2760
UTC large
Height (km)
Speed (km/s)
/
Latitude / Longitude
Inclination (degrees)
Orbital Period (minutes)
Azimuth
Elevation
Range (km)
Doppler Factor

Next 0 passes for location: London (51.5072 / 0.1276)

Sorry there are no passes over London.